Regional Weather Roundup
Issued by NWS State College, PA

Home | Current Version | Previous Version | Text Only | Print | Product List | Glossary On
Versions: 1 2 3 4 5 6 7 8 9 10 11 12 13 14 15 16 17 18 19 20 21 22 23 24 25 26 27 28 29 30 31 32 33 34 35 36 37 38 39 40 41 42 43 44 45 46 47 48 49 50
000
ASUS41 KCTP 290303
RWRCTP

REGIONAL WEATHER ROUNDUP
NATIONAL WEATHER SERVICE STATE COLLEGE PA
1100 PM EDT SAT MAR 28 2015

Note: "fair" indicates few or no clouds below 12,000 feet with no
significant weather and/or obstructions to visibility.

* = STATION THAT DOES NOT REPORT PRECIPITATION /E.G. RAIN...SNOW...ETC/
    THUNDER OR FOG.

PAZ002>004-007>009-013>016-020>023-029>032-290400-
WESTERN PENNSYLVANIA

CITY           SKY/WX    TMP DP  RH WIND       PRES   REMARKS
ERIE           CLEAR     22  12  65 W7        30.28R WCI  13
MEADVILLE      CLEAR     18   9  68 W5        30.24R WCI  11
FRANKLIN*      CLEAR     16   5  62 W6        30.24S WCI   7
NEW CASTLE     FAIR      19   7  60 CALM      30.30R
BEAVER COUNTY  NOT AVBL
BUTLER*        CLEAR     19   5  53 CALM      30.28R
PITTSBURGH INT CLEAR     22   6  50 NW8       30.27R WCI  12
PITTSBURGH     CLEAR     21   3  45 NW6       30.26R WCI  13
INDIANA*       CLEAR     19   5  53 CALM      30.28R
LATROBE        NOT AVBL
WASHINGTON CO* CLEAR     21   3  45 CALM      30.29S
$$

PAZ004>006-010>012-017>019-024>028-033>037-041-042-045-046-049>053-290400-
CENTRAL PENNSYLVANIA

CITY           SKY/WX    TMP DP  RH WIND       PRES   REMARKS
BRADFORD       CLEAR     16   6  65 W7        30.14R WCI   6
DUBOIS         CLEAR     18   6  59 W9        30.18R WCI   7
CLEARFIELD     CLEAR     19   3  49 VRB7      30.20R WCI  10
JOHNSTOWN      CLEAR     17   2  51 NW14      30.15R WCI   3
ALTOONA        CLEAR     21   2  43 NW15      30.20R WCI   8
STATE COLLEGE  CLEAR     21   0  40 NW5       30.20R WCI  15
WILLIAMSPORT   CLEAR     23   2  40 W7        30.21R WCI  15
SELINSGROVE    PTCLDY    25   6  44 N9        30.22R
FT INDIANTOWN  CLEAR     26   2  35 VRB6      30.19R
CAPITAL CITY   MOCLDY    28   2  32 N9G21     30.20R
HARRISBURG     PTCLDY    28   3  34 N9        30.20R
YORK           CLEAR     28   5  37 NW10G18   30.18R
$$

PAZ038>040-043-044-047-048-054-055-060>062-067>071-290400-
EASTERN PENNSYLVANIA

CITY           SKY/WX    TMP DP  RH WIND       PRES   REMARKS
SCRANTON       CLOUDY    23   4  44 N9G20     30.15R WCI  13
MOUNT POCONO   CLOUDY    17   3  54 NW20G28   30.03R WCI   1
ALLENTOWN      CLOUDY    25   7  46 NW21G29   30.16R WCI  11
QUAKERTOWN*    PTCLDY    25   7  46 N12G20    30.15R WCI  14
READING        CLOUDY    27   4  37 N15G23    30.18R
LANCASTER      PTCLDY    27   5  39 N13G25    30.18R
COATESVILLE    FAIR      27   7  43 N8G17     30.15R
POTTSTOWN      CLOUDY    26   6  42 NW12G20   30.18R
BLUE BELL      MOCLDY    30  10  43 N8        30.15R
DOYLESTOWN     PTCLDY    23   7  50 NW9G18    30.14R WCI  13
WILLOW GROVE   NOT AVBL
NORTH PHILA    MOCLDY    29   6  38 N18       30.17R
PHILADELPHIA   PTCLDY    30   6  36 NW22G28   30.17R
$$


USA.gov is the U.S. government's official web portal to all federal, state and local government web resources and services.